Simultaneous Nadir Overpasses (SNOs) Predictions

Prediction of SNOs between FY3D and AQUA Satellite Orbit:

Table of predicted SNOs for the next 14.0 days since TLE Epoch: 6/14/2024
Index Date (FY3D) Time (FY3D) Lat,Lon (FY3D) SZA (FY3D ) Date (AQUA) Time (AQUA) Lat,Lon (AQUA) SZA (AQUA ) Distance(km) Time Diff (sec)
1 06/16/2024 19:03:27 -79.52, 54.61 123.25 06/16/2024 19:04:40 -79.52, 54.53 123.26 1.61 73
2 06/16/2024 19:54:07 79.35,-136.67 56.51 06/16/2024 19:53:58 79.35,-136.64 56.51 0.53 9
3 06/19/2024 07:07:07 79.56, 53.36 56.78 06/19/2024 07:08:20 79.56, 53.38 56.75 0.43 73
4 06/19/2024 07:57:46 -79.35,-137.52 123.54 06/19/2024 07:57:36 -79.35,-137.51 123.54 0.34 10
5 06/21/2024 19:10:45 -79.56, 52.48 123.22 06/21/2024 19:11:56 -79.55, 52.54 123.25 1.36 71
6 06/21/2024 20:01:24 79.37,-138.53 56.49 06/21/2024 20:01:13 79.36,-138.43 56.48 2.17 11
7 06/24/2024 07:14:22 79.52, 51.97 56.77 06/24/2024 07:15:32 79.53, 51.83 56.77 2.99 70
8 06/24/2024 08:05:00 -79.28,-138.65 123.60 06/24/2024 08:04:47 -79.28,-138.76 123.59 2.22 13
9 06/26/2024 19:18:02 -79.57, 50.72 123.08 06/26/2024 19:19:08 -79.57, 50.74 123.11 0.47 66



Historial Predications of SNOs between FY3D and AQUA
